Location: Gwatt
(46.7204°N, 7.6223°E)
Time: 17:31:20
(UTC+00:00)

SPOT 5 - Pass Details

Date: 18 September 2020
Orbit: 623 x 815 km, 98.3° (Epoch: 30 October)

Event Time Altitude Azimuth Distance (km) Brightness Sun altitude
Exits shadow 20:40:13 36° 21° (NNE) 1,244 4.1 -30.0°
Drops below altitude 10° 20:43:37 10° 356° (N) 2,388 6.1 -30.5°
Sets 20:46:03 0° 351° (N) 3,338 7.0 -30.8°
